AUA1R LOWW-KORD

Flight info

Callsign AUA1R
Flight time N/A
Altitude 34000
Route MEDIX DCT LAMSI/N0478F360 DCT MAMOR DCT PETIX DCT TUSUK DCT ADKUV/N0476F380 DCT NIK L610 KOPUL Q63 ICTAM T421 DIDZA DCT CESQA DCT BIBPE DCT OKTAD DCT MEDOG DCT PEMOB DCT BAKUR DCT NEBIN/M084F390 NATB BUDAR/N0482F400 N448A ANATI DCT KAPUX DCT HOCKE DCT FNT WYNDE3
Aircraft B789/H-SDE1E2E3FGHIJ2J3J4J5M1RWXY/LB1D1

Departure

Time 2026-05-01 11:35
Airport Vienna International Airport (LOWW)

Arrival

Time N/A
Airport Chicago O'Hare International Airport (KORD)
Time Latitude Longitude Altitude Speed Heading
2026-05-01 11:03 48.11777 16.56024 628 ft 0 kts 38°
2026-05-01 11:13 48.11777 16.56023 615 ft 0 kts 38°
2026-05-01 11:15 48.11776 16.56023 615 ft 0 kts 38°
2026-05-01 11:22 48.11776 16.56022 615 ft 0 kts 38°
2026-05-01 11:24 48.11773 16.56019 634 ft 2 kts 39°
2026-05-01 11:25 48.11759 16.56000 630 ft 3 kts 50°
2026-05-01 11:25 48.11741 16.55948 627 ft 3 kts 87°
2026-05-01 11:25 48.11743 16.55920 630 ft 2 kts 111°
2026-05-01 11:26 48.11745 16.55913 630 ft 2 kts 116°
2026-05-01 11:27 48.11745 16.55912 630 ft 0 kts 116°
2026-05-01 11:29 48.11744 16.55916 630 ft 1 kts 116°
2026-05-01 11:29 48.11723 16.55980 630 ft 12 kts 116°
2026-05-01 11:29 48.11615 16.56312 620 ft 22 kts 116°
2026-05-01 11:30 48.11550 16.56511 626 ft 22 kts 116°
2026-05-01 11:30 48.11468 16.56762 626 ft 30 kts 116°
2026-05-01 11:30 48.11379 16.57038 625 ft 29 kts 115°
2026-05-01 11:30 48.11290 16.57306 627 ft 28 kts 116°
2026-05-01 11:31 48.11209 16.57559 619 ft 15 kts 117°
2026-05-01 11:31 48.11164 16.57603 627 ft 7 kts 174°
2026-05-01 11:31 48.11130 16.57580 630 ft 5 kts 217°
2026-05-01 11:31 48.11099 16.57546 622 ft 6 kts 213°
2026-05-01 11:32 48.11056 16.57511 624 ft 8 kts 207°
2026-05-01 11:32 48.11003 16.57471 626 ft 9 kts 208°
2026-05-01 11:32 48.10964 16.57413 625 ft 6 kts 255°
2026-05-01 11:32 48.10972 16.57361 627 ft 5 kts 290°
2026-05-01 11:33 48.10990 16.57302 628 ft 7 kts 296°
2026-05-01 11:33 48.10993 16.57293 627 ft 0 kts 296°
2026-05-01 11:33 48.10993 16.57292 627 ft 0 kts 296°
2026-05-01 11:34 48.11043 16.57138 628 ft 40 kts 296°
2026-05-01 11:34 48.11274 16.56429 627 ft 112 kts 296°
2026-05-01 11:34 48.11711 16.55079 626 ft 174 kts 296°
2026-05-01 11:34 48.12271 16.53330 1099 ft 198 kts 296°
2026-05-01 11:35 48.12419 16.51211 1762 ft 219 kts 261°
2026-05-01 11:35 48.11956 16.48934 2350 ft 238 kts 253°
2026-05-01 11:35 48.11350 16.46588 3206 ft 245 kts 252°
2026-05-01 11:35 48.10828 16.44034 3794 ft 266 kts 263°
2026-05-01 11:36 48.10542 16.41323 4941 ft 267 kts 261°
2026-05-01 11:36 48.10084 16.38488 5382 ft 289 kts 255°
2026-05-01 11:36 48.09618 16.35705 6844 ft 275 kts 266°
2026-05-01 11:36 48.09693 16.32788 7599 ft 284 kts 280°
2026-05-01 11:37 48.09827 16.29853 8554 ft 291 kts 271°
2026-05-01 11:37 48.09806 16.26922 8797 ft 277 kts 278°
2026-05-01 11:37 48.09996 16.23914 9141 ft 297 kts 279°
2026-05-01 11:37 48.10171 16.20841 10236 ft 299 kts 282°
2026-05-01 11:38 48.10800 16.17790 10607 ft 319 kts 295°
2026-05-01 11:38 48.11604 16.14538 10944 ft 346 kts 294°
2026-05-01 11:38 48.12420 16.11159 11859 ft 349 kts 294°
2026-05-01 11:38 48.13241 16.07795 12776 ft 353 kts 295°
2026-05-01 11:39 48.14099 16.04318 13704 ft 358 kts 295°
2026-05-01 11:39 48.14963 16.00802 14563 ft 363 kts 295°
2026-05-01 11:39 48.15835 15.97226 15346 ft 367 kts 295°
2026-05-01 11:39 48.16717 15.93603 16118 ft 373 kts 295°
2026-05-01 11:40 48.17614 15.89920 16925 ft 378 kts 295°
2026-05-01 11:40 48.18524 15.86182 17650 ft 384 kts 295°
2026-05-01 11:40 48.19443 15.82395 18431 ft 389 kts 295°
2026-05-01 11:40 48.20373 15.78552 19110 ft 394 kts 295°
2026-05-01 11:41 48.21313 15.74665 19769 ft 398 kts 295°
2026-05-01 11:41 48.22265 15.70726 20417 ft 403 kts 295°
2026-05-01 11:41 48.23224 15.66744 21057 ft 407 kts 295°
2026-05-01 11:41 48.24178 15.62778 21681 ft 411 kts 295°
2026-05-01 11:42 48.25154 15.58713 22267 ft 415 kts 295°
2026-05-01 11:42 48.26138 15.54609 22898 ft 419 kts 295°
2026-05-01 11:42 48.27128 15.50472 23498 ft 423 kts 295°
2026-05-01 11:42 48.28125 15.46296 24055 ft 427 kts 295°
2026-05-01 11:43 48.29129 15.42083 24561 ft 430 kts 295°
2026-05-01 11:43 48.30036 15.37784 25043 ft 434 kts 292°
2026-05-01 11:43 48.30933 15.33426 25535 ft 436 kts 293°
2026-05-01 11:44 48.32748 15.24688 26500 ft 441 kts 292°
2026-05-01 11:44 48.33641 15.20262 26982 ft 444 kts 292°
2026-05-01 11:44 48.34532 15.15875 27432 ft 445 kts 292°
2026-05-01 11:44 48.35445 15.11409 27877 ft 448 kts 292°
2026-05-01 11:45 48.36359 15.06916 28340 ft 450 kts 292°
2026-05-01 11:45 48.37272 15.02395 28765 ft 453 kts 292°
2026-05-01 11:45 48.38188 14.97847 29202 ft 455 kts 292°
2026-05-01 11:45 48.39111 14.93272 29612 ft 458 kts 292°
2026-05-01 11:46 48.40040 14.88657 30034 ft 461 kts 292°
2026-05-01 11:46 48.40969 14.84018 30445 ft 463 kts 292°
2026-05-01 11:46 48.41900 14.79360 30764 ft 466 kts 291°
2026-05-01 11:46 48.42832 14.74687 31142 ft 467 kts 291°
2026-05-01 11:47 48.43768 14.69989 31430 ft 470 kts 291°
2026-05-01 11:47 48.44697 14.65314 31775 ft 472 kts 291°
2026-05-01 11:47 48.45638 14.60562 32093 ft 475 kts 291°
2026-05-01 11:47 48.46583 14.55783 32412 ft 477 kts 291°
2026-05-01 11:48 48.47531 14.50972 32716 ft 480 kts 291°
2026-05-01 11:48 48.48483 14.46131 33009 ft 482 kts 291°
2026-05-01 11:48 48.49436 14.41272 33307 ft 484 kts 291°
2026-05-01 11:48 48.50392 14.36390 33593 ft 486 kts 291°
2026-05-01 11:49 48.51349 14.31484 33880 ft 488 kts 291°
2026-05-01 11:49 48.52309 14.26550 34166 ft 491 kts 291°
2026-05-01 11:49 48.53259 14.21659 34419 ft 493 kts 291°
2026-05-01 11:49 48.54230 14.16654 34408 ft 499 kts 291°
2026-05-01 11:50 48.56152 14.06664 34403 ft 493 kts 291°
2026-05-01 11:50 48.58064 13.96722 34391 ft 492 kts 290°
2026-05-01 11:51 48.59957 13.86795 34400 ft 492 kts 290°
2026-05-01 11:51 48.61846 13.76849 34403 ft 493 kts 290°
2026-05-01 11:52 48.63729 13.66878 34403 ft 493 kts 290°
2026-05-01 11:52 48.65601 13.56910 34376 ft 492 kts 289°
2026-05-01 11:53 48.67347 13.46945 34404 ft 493 kts 288°
2026-05-01 11:53 48.69115 13.36909 34400 ft 493 kts 289°
2026-05-01 11:54 48.70875 13.26860 34396 ft 494 kts 288°
2026-05-01 11:54 48.72624 13.16783 34396 ft 494 kts 289°
2026-05-01 11:55 48.74367 13.06715 34404 ft 493 kts 288°
2026-05-01 11:55 48.76092 12.96670 34402 ft 493 kts 288°
2026-05-01 11:56 48.77804 12.86667 34398 ft 492 kts 288°
2026-05-01 11:56 48.79511 12.76618 34387 ft 492 kts 288°
2026-05-01 11:57 48.80925 12.68258 34391 ft 492 kts 288°
2026-05-01 11:57 48.82903 12.56487 34403 ft 493 kts 288°
2026-05-01 11:58 48.84580 12.46445 34401 ft 494 kts 288°
2026-05-01 11:59 48.87099 12.31251 34391 ft 492 kts 287°
2026-05-01 11:59 48.88529 12.22901 34391 ft 489 kts 293°
2026-05-01 12:00 48.92824 12.08922 34405 ft 486 kts 300°
2026-05-01 12:01 48.97207 11.95069 34398 ft 487 kts 299°
2026-05-01 12:01 49.00135 11.85806 34385 ft 482 kts 299°
2026-05-01 12:02 49.03027 11.76595 34384 ft 482 kts 298°
2026-05-01 12:02 49.05903 11.67413 34384 ft 483 kts 298°
2026-05-01 12:03 49.08790 11.58154 34386 ft 483 kts 298°
2026-05-01 12:03 49.11672 11.48883 34382 ft 482 kts 298°
2026-05-01 12:04 49.14536 11.39629 34385 ft 482 kts 298°
2026-05-01 12:04 49.17395 11.30363 34379 ft 482 kts 298°
2026-05-01 12:05 49.20246 11.21084 34367 ft 482 kts 298°
2026-05-01 12:05 49.24477 11.07249 34369 ft 479 kts 297°
2026-05-01 12:06 49.27301 10.97975 34380 ft 481 kts 297°
2026-05-01 12:06 49.30127 10.88652 34388 ft 482 kts 297°
2026-05-01 12:07 49.32926 10.79389 34386 ft 482 kts 297°
2026-05-01 12:07 49.35861 10.70131 34378 ft 481 kts 298°
2026-05-01 12:08 49.38760 10.60911 34377 ft 479 kts 298°
2026-05-01 12:08 49.41718 10.51744 34369 ft 479 kts 298°
2026-05-01 12:09 49.44637 10.42526 34370 ft 479 kts 298°
2026-05-01 12:09 49.47561 10.33324 34364 ft 478 kts 298°
2026-05-01 12:10 49.51895 10.19580 34365 ft 479 kts 298°
2026-05-01 12:11 49.56246 10.05723 34370 ft 479 kts 297°
2026-05-01 12:11 49.59133 9.96482 34371 ft 478 kts 297°
2026-05-01 12:12 49.62008 9.87241 34356 ft 475 kts 297°
2026-05-01 12:12 49.64859 9.78053 34356 ft 475 kts 297°
2026-05-01 12:13 49.67688 9.68889 34355 ft 476 kts 297°
2026-05-01 12:13 49.70538 9.59639 34354 ft 477 kts 297°
2026-05-01 12:14 49.73377 9.50370 34342 ft 476 kts 297°
2026-05-01 12:14 49.76206 9.41116 34332 ft 476 kts 297°
2026-05-01 12:15 49.79003 9.31922 34343 ft 474 kts 297°
2026-05-01 12:15 49.81811 9.22665 34338 ft 477 kts 297°
2026-05-01 12:16 49.84626 9.13347 34339 ft 477 kts 296°
2026-05-01 12:16 49.87430 9.04023 34331 ft 477 kts 296°
2026-05-01 12:17 49.90220 8.94719 34337 ft 477 kts 296°
2026-05-01 12:17 49.92985 8.85450 34340 ft 475 kts 296°
2026-05-01 12:18 49.95762 8.76123 34337 ft 476 kts 296°
2026-05-01 12:18 49.98532 8.66768 34344 ft 476 kts 296°
2026-05-01 12:19 50.01286 8.57437 34351 ft 478 kts 296°
2026-05-01 12:19 50.04042 8.48063 34347 ft 476 kts 296°
2026-05-01 12:20 50.06791 8.38679 34337 ft 475 kts 296°
2026-05-01 12:20 50.09529 8.29296 34333 ft 476 kts 296°
2026-05-01 12:21 50.12253 8.19922 34325 ft 478 kts 295°
2026-05-01 12:21 50.14984 8.10452 34331 ft 479 kts 295°
2026-05-01 12:22 50.17665 8.00984 34332 ft 477 kts 295°
2026-05-01 12:22 50.20353 7.91524 34334 ft 475 kts 295°
2026-05-01 12:23 50.23020 7.82074 34318 ft 477 kts 294°
2026-05-01 12:23 50.25696 7.72558 34322 ft 479 kts 294°
2026-05-01 12:24 50.28374 7.62997 34324 ft 478 kts 294°
2026-05-01 12:24 50.31032 7.53470 34322 ft 478 kts 294°
2026-05-01 12:25 50.34995 7.39194 34314 ft 477 kts 294°
2026-05-01 12:26 50.37641 7.29608 34310 ft 480 kts 293°
2026-05-01 12:26 50.41587 7.15246 34312 ft 480 kts 293°
2026-05-01 12:27 50.45523 7.00832 34305 ft 476 kts 293°
2026-05-01 12:28 50.49435 6.86418 34284 ft 480 kts 292°
2026-05-01 12:29 50.53301 6.71899 34287 ft 480 kts 292°
2026-05-01 12:29 50.57107 6.57424 34274 ft 479 kts 292°
2026-05-01 12:30 50.60902 6.42872 34265 ft 479 kts 291°
2026-05-01 12:31 50.63434 6.33135 34261 ft 480 kts 291°
2026-05-01 12:31 50.65950 6.23399 34261 ft 480 kts 291°
2026-05-01 12:32 50.68461 6.13654 34260 ft 479 kts 291°
2026-05-01 12:32 50.72212 5.99012 34260 ft 482 kts 290°
2026-05-01 12:33 50.74711 5.89200 34263 ft 481 kts 291°
2026-05-01 12:33 50.77197 5.79401 34265 ft 481 kts 291°
2026-05-01 12:34 50.79661 5.69641 34265 ft 481 kts 290°
2026-05-01 12:34 50.82134 5.59811 34264 ft 481 kts 290°
2026-05-01 12:35 50.84601 5.49949 34264 ft 482 kts 290°
2026-05-01 12:35 50.87063 5.40077 34261 ft 481 kts 290°
2026-05-01 12:36 50.89510 5.30215 34255 ft 481 kts 290°
2026-05-01 12:36 50.91950 5.20332 34259 ft 481 kts 290°
2026-05-01 12:37 50.94368 5.10502 34260 ft 482 kts 290°
2026-05-01 12:37 50.96794 5.00599 34260 ft 481 kts 289°
2026-05-01 12:38 50.99211 4.90678 34262 ft 481 kts 289°
2026-05-01 12:38 51.01617 4.80758 34262 ft 481 kts 289°
2026-05-01 12:39 51.04018 4.70822 34254 ft 482 kts 289°
2026-05-01 12:39 51.06402 4.60904 34245 ft 484 kts 289°
2026-05-01 12:40 51.08799 4.50890 34249 ft 483 kts 289°
2026-05-01 12:40 51.11181 4.40893 34248 ft 483 kts 289°
2026-05-01 12:41 51.13552 4.30896 34247 ft 482 kts 289°
2026-05-01 12:41 51.15911 4.20900 34246 ft 482 kts 289°
2026-05-01 12:42 51.17561 4.10668 34239 ft 480 kts 281°
2026-05-01 12:42 51.18980 4.00264 34239 ft 480 kts 281°
2026-05-01 12:43 51.20389 3.89858 34230 ft 480 kts 281°
2026-05-01 12:43 51.21791 3.79430 34235 ft 480 kts 280°
2026-05-01 12:44 51.23187 3.68966 34230 ft 482 kts 280°
2026-05-01 12:45 51.25979 3.48004 34229 ft 482 kts 280°
2026-05-01 12:45 51.27358 3.37517 34227 ft 482 kts 280°
2026-05-01 12:46 51.28696 3.27083 34228 ft 483 kts 279°
2026-05-01 12:46 51.30043 3.16563 34218 ft 482 kts 279°
2026-05-01 12:47 51.31372 3.06077 34215 ft 481 kts 279°
2026-05-01 12:47 51.32477 2.97309 34214 ft 480 kts 279°
2026-05-01 12:48 51.33780 2.86892 34214 ft 480 kts 279°
2026-05-01 12:48 51.35080 2.76416 34215 ft 480 kts 278°
2026-05-01 12:49 51.36377 2.65928 34212 ft 480 kts 278°
2026-05-01 12:49 51.37668 2.55422 34213 ft 480 kts 278°
2026-05-01 12:50 51.38937 2.44994 34207 ft 480 kts 278°
2026-05-01 12:50 51.40206 2.34509 34214 ft 480 kts 278°
2026-05-01 12:51 51.41464 2.24008 34213 ft 479 kts 278°
2026-05-01 12:52 51.43392 2.08301 34209 ft 479 kts 278°
2026-05-01 12:52 51.45271 1.92588 34207 ft 478 kts 277°
2026-05-01 12:53 51.47106 1.76803 34216 ft 481 kts 277°
2026-05-01 12:54 51.48315 1.66298 34217 ft 482 kts 277°
2026-05-01 12:54 51.50117 1.50483 34215 ft 480 kts 277°
2026-05-01 12:55 51.51898 1.34642 34207 ft 480 kts 276°
2026-05-01 12:56 51.53074 1.24077 34198 ft 480 kts 276°
2026-05-01 12:56 51.54144 1.13514 34199 ft 475 kts 269°
2026-05-01 12:57 51.54100 1.02931 34197 ft 474 kts 265°
2026-05-01 12:57 51.53883 0.87071 34196 ft 475 kts 265°
2026-05-01 12:58 51.53733 0.76461 34188 ft 475 kts 265°
2026-05-01 12:59 51.53491 0.60542 34190 ft 475 kts 265°
2026-05-01 12:59 51.53225 0.44628 34180 ft 475 kts 265°
2026-05-01 13:00 51.53172 0.28776 34167 ft 475 kts 266°
2026-05-01 13:01 51.53202 0.12812 34164 ft 476 kts 266°
2026-05-01 13:02 51.53209 -0.03105 34166 ft 475 kts 267°
2026-05-01 13:07 51.53069 -1.14243 34151 ft 477 kts 278°
2026-05-01 13:07 51.53983 -1.19398 34143 ft 482 kts 290°
2026-05-01 13:08 51.57098 -1.28995 34148 ft 485 kts 296°
2026-05-01 13:08 51.60399 -1.38458 34126 ft 484 kts 294°
2026-05-01 13:09 51.62905 -1.48442 34157 ft 481 kts 288°
2026-05-01 13:09 51.65312 -1.58515 34171 ft 482 kts 288°
2026-05-01 13:10 51.67690 -1.68527 34156 ft 481 kts 288°
2026-05-01 13:10 51.70079 -1.78623 34155 ft 482 kts 288°
2026-05-01 13:11 51.72174 -1.88843 34159 ft 478 kts 280°
2026-05-01 13:11 51.73730 -1.99273 34163 ft 478 kts 281°
2026-05-01 13:12 51.75272 -2.09711 34160 ft 478 kts 281°
2026-05-01 13:12 51.76806 -2.20161 34166 ft 478 kts 281°
2026-05-01 13:13 51.78331 -2.30616 34165 ft 478 kts 280°
2026-05-01 13:13 51.79833 -2.40983 34162 ft 476 kts 280°
2026-05-01 13:14 51.81334 -2.51421 34165 ft 478 kts 280°
2026-05-01 13:14 51.82801 -2.61909 34164 ft 478 kts 279°
2026-05-01 13:15 51.84204 -2.72434 34162 ft 478 kts 279°
2026-05-01 13:15 51.85632 -2.82940 34162 ft 477 kts 279°
2026-05-01 13:16 51.87017 -2.93369 34172 ft 476 kts 278°
2026-05-01 13:16 51.88413 -3.03869 34163 ft 478 kts 278°
2026-05-01 13:17 51.91179 -3.24970 34168 ft 479 kts 278°
2026-05-01 13:18 51.93226 -3.40786 34180 ft 478 kts 278°
2026-05-01 13:18 51.94571 -3.51280 34179 ft 479 kts 277°
2026-05-01 13:19 51.95920 -3.61876 34187 ft 480 kts 277°
2026-05-01 13:20 51.97924 -3.77784 34188 ft 478 kts 277°
2026-05-01 13:20 51.99245 -3.88371 34176 ft 478 kts 277°
2026-05-01 13:21 52.01205 -4.04231 34187 ft 481 kts 276°
2026-05-01 13:21 52.02511 -4.14896 34181 ft 481 kts 276°
2026-05-01 13:22 52.03807 -4.25574 34180 ft 480 kts 276°
2026-05-01 13:22 52.05089 -4.36222 34177 ft 480 kts 276°
2026-05-01 13:23 52.06356 -4.46823 34181 ft 481 kts 275°
2026-05-01 13:23 52.07619 -4.57496 34183 ft 480 kts 275°
2026-05-01 13:24 52.08873 -4.68158 34181 ft 480 kts 275°
2026-05-01 13:25 52.10734 -4.84162 34176 ft 479 kts 275°
2026-05-01 13:25 52.11962 -4.94819 34191 ft 480 kts 274°
2026-05-01 13:26 52.13190 -5.05604 34189 ft 485 kts 274°
2026-05-01 13:26 52.14445 -5.16325 34189 ft 487 kts 279°
2026-05-01 13:27 52.16439 -5.26918 34187 ft 489 kts 281°
2026-05-01 13:27 52.19450 -5.42840 34179 ft 489 kts 281°
2026-05-01 13:28 52.22417 -5.58682 34176 ft 488 kts 281°
2026-05-01 13:29 52.26282 -5.79940 34174 ft 488 kts 280°
2026-05-01 13:31 52.31938 -6.12007 34167 ft 494 kts 280°
2026-05-01 13:32 52.36612 -6.38951 34152 ft 492 kts 279°
2026-05-01 13:33 52.41245 -6.66080 34146 ft 496 kts 279°
2026-05-01 13:34 52.44900 -6.87791 34151 ft 495 kts 279°
2026-05-01 13:35 52.47623 -7.04147 34141 ft 495 kts 278°
2026-05-01 13:36 52.50318 -7.20485 34133 ft 495 kts 278°
2026-05-01 13:36 52.52990 -7.36838 34134 ft 496 kts 278°
2026-05-01 13:37 52.54468 -7.45955 34117 ft 497 kts 278°
2026-05-01 13:37 52.56242 -7.56952 34110 ft 496 kts 278°
2026-05-01 13:38 52.58860 -7.73336 34099 ft 493 kts 278°
2026-05-01 13:39 52.60592 -7.84254 34099 ft 493 kts 278°
2026-05-01 13:39 52.62313 -7.95184 34097 ft 494 kts 278°
2026-05-01 13:40 52.64016 -8.06067 34110 ft 495 kts 278°
2026-05-01 13:40 52.65719 -8.17012 34106 ft 492 kts 278°
2026-05-01 13:41 52.67407 -8.27959 34097 ft 492 kts 278°
2026-05-01 13:41 52.69084 -8.38884 34097 ft 491 kts 277°
2026-05-01 13:42 52.70748 -8.49814 34096 ft 492 kts 277°
2026-05-01 13:42 52.72408 -8.60786 34085 ft 493 kts 278°
2026-05-01 13:43 52.74053 -8.71747 34192 ft 500 kts 278°
2026-05-01 13:43 52.74885 -8.77319 34489 ft 501 kts 278°
2026-05-01 13:43 52.75722 -8.82919 34735 ft 503 kts 278°
2026-05-01 13:43 52.76541 -8.88438 34990 ft 504 kts 278°
2026-05-01 13:44 52.77374 -8.94072 35366 ft 503 kts 278°
2026-05-01 13:44 52.78201 -8.99682 35720 ft 502 kts 278°
2026-05-01 13:44 52.79023 -9.05282 36070 ft 502 kts 279°
2026-05-01 13:44 52.79844 -9.10896 36443 ft 501 kts 279°
2026-05-01 13:45 52.80659 -9.16485 36824 ft 499 kts 279°
2026-05-01 13:45 52.81470 -9.22066 37177 ft 499 kts 279°
2026-05-01 13:45 52.82276 -9.27637 37502 ft 498 kts 280°
2026-05-01 13:45 52.83081 -9.33217 37847 ft 498 kts 280°
2026-05-01 13:46 52.83872 -9.38727 38095 ft 499 kts 280°
2026-05-01 13:46 52.85479 -9.49969 38075 ft 500 kts 280°
2026-05-01 13:47 52.87064 -9.61135 38078 ft 496 kts 280°
2026-05-01 13:47 52.88631 -9.72272 38081 ft 496 kts 280°
2026-05-01 13:48 52.90188 -9.83399 38081 ft 494 kts 280°
2026-05-01 13:48 52.91717 -9.94427 38079 ft 495 kts 280°
2026-05-01 13:49 52.93251 -10.05560 38082 ft 496 kts 280°
2026-05-01 13:49 52.94780 -10.16748 38085 ft 497 kts 280°
2026-05-01 13:50 52.96290 -10.27879 38090 ft 498 kts 280°
2026-05-01 13:50 52.97799 -10.39085 38091 ft 497 kts 280°
2026-05-01 13:51 52.99296 -10.50294 38087 ft 497 kts 279°
2026-05-01 13:51 53.00783 -10.61504 38080 ft 496 kts 279°
2026-05-01 13:52 53.02255 -10.72697 38082 ft 496 kts 279°
2026-05-01 13:52 53.03718 -10.83906 38074 ft 495 kts 279°
2026-05-01 13:53 53.05158 -10.95031 38075 ft 495 kts 279°
2026-05-01 13:53 53.07310 -11.11817 38070 ft 494 kts 279°
2026-05-01 13:54 53.08731 -11.23008 38065 ft 494 kts 279°
2026-05-01 13:54 53.10144 -11.34239 38071 ft 498 kts 279°
2026-05-01 13:55 53.11557 -11.45547 38081 ft 500 kts 279°
2026-05-01 13:55 53.12952 -11.56809 38075 ft 500 kts 279°
2026-05-01 13:56 53.14346 -11.68155 38074 ft 499 kts 279°
2026-05-01 13:56 53.15728 -11.79510 38064 ft 499 kts 279°
2026-05-01 13:57 53.17099 -11.90861 38064 ft 498 kts 279°
2026-05-01 13:57 53.18452 -12.02156 38060 ft 499 kts 279°
2026-05-01 13:58 53.19802 -12.13529 38069 ft 499 kts 279°
2026-05-01 13:58 53.21139 -12.24889 38063 ft 499 kts 279°
2026-05-01 13:59 53.22456 -12.36176 38069 ft 498 kts 279°
2026-05-01 13:59 53.23771 -12.47542 38052 ft 499 kts 279°
2026-05-01 14:00 53.25076 -12.58928 38045 ft 499 kts 279°
2026-05-01 14:00 53.26368 -12.70305 38050 ft 499 kts 279°
2026-05-01 14:01 53.27650 -12.81698 38048 ft 499 kts 279°
2026-05-01 14:01 53.28917 -12.93045 38046 ft 498 kts 279°
2026-05-01 14:02 53.30173 -13.04406 38050 ft 497 kts 279°
2026-05-01 14:02 53.31421 -13.15799 38050 ft 497 kts 279°
2026-05-01 14:03 53.32657 -13.27184 38058 ft 497 kts 279°
2026-05-01 14:03 53.33881 -13.38577 38058 ft 497 kts 279°
2026-05-01 14:04 53.35095 -13.49976 38064 ft 497 kts 279°
2026-05-01 14:04 53.36094 -13.59431 38066 ft 496 kts 279°
2026-05-01 14:05 53.37476 -13.72656 38077 ft 497 kts 279°
2026-05-01 14:05 53.38656 -13.84057 38076 ft 496 kts 279°
2026-05-01 14:06 53.39826 -13.95476 38084 ft 496 kts 279°
2026-05-01 14:06 53.40983 -14.06888 38077 ft 496 kts 279°
2026-05-01 14:07 53.42127 -14.18264 38089 ft 494 kts 279°
2026-05-01 14:08 53.43811 -14.35248 38092 ft 495 kts 279°
2026-05-01 14:08 53.44927 -14.46644 38101 ft 494 kts 279°
2026-05-01 14:09 53.46033 -14.58048 38105 ft 495 kts 279°
2026-05-01 14:09 53.47125 -14.69434 38112 ft 492 kts 279°
2026-05-01 14:10 53.48201 -14.80770 38108 ft 490 kts 280°
2026-05-01 14:10 53.49251 -14.91941 38113 ft 491 kts 279°
2026-05-01 14:11 53.50077 -15.03328 38155 ft 491 kts 272°
2026-05-01 14:11 53.50408 -15.20589 38141 ft 492 kts 274°
2026-05-01 14:12 53.50630 -15.32059 38140 ft 491 kts 274°
2026-05-01 14:12 53.50828 -15.43526 38142 ft 490 kts 273°
2026-05-01 14:13 53.50992 -15.53052 38148 ft 490 kts 273°
2026-05-01 14:13 53.51201 -15.66371 38152 ft 490 kts 274°
2026-05-01 14:14 53.51373 -15.77838 38160 ft 491 kts 274°
2026-05-01 14:14 53.51532 -15.89292 38162 ft 490 kts 274°
2026-05-01 14:15 53.51679 -16.00754 38163 ft 490 kts 274°
2026-05-01 14:15 53.51818 -16.12200 38168 ft 490 kts 273°
2026-05-01 14:16 53.51943 -16.23657 38169 ft 490 kts 273°
2026-05-01 14:16 53.52060 -16.35126 38180 ft 490 kts 273°
2026-05-01 14:17 53.52162 -16.46515 38183 ft 491 kts 273°
2026-05-01 14:17 53.52257 -16.57992 38188 ft 490 kts 273°
2026-05-01 14:18 53.52338 -16.69455 38187 ft 490 kts 273°
2026-05-01 14:18 53.52400 -16.78979 38174 ft 489 kts 273°
2026-05-01 14:19 53.52470 -16.92331 38174 ft 488 kts 273°
2026-05-01 14:19 53.52521 -17.03694 38183 ft 489 kts 272°
2026-05-01 14:20 53.52574 -17.20870 38195 ft 490 kts 272°
2026-05-01 14:21 53.52596 -17.32331 38181 ft 490 kts 272°
2026-05-01 14:21 53.52608 -17.43757 38201 ft 488 kts 272°
2026-05-01 14:22 53.52605 -17.60855 38197 ft 488 kts 272°
2026-05-01 14:22 53.52589 -17.72201 38203 ft 489 kts 272°
2026-05-01 14:23 53.52562 -17.83654 38214 ft 490 kts 272°
2026-05-01 14:23 53.52524 -17.95067 38210 ft 484 kts 272°
2026-05-01 14:24 53.52477 -18.06368 38206 ft 483 kts 272°
2026-05-01 14:24 53.52419 -18.17591 38215 ft 484 kts 272°
2026-05-01 14:25 53.52350 -18.28914 38221 ft 484 kts 272°
2026-05-01 14:25 53.52270 -18.40241 38205 ft 485 kts 272°
2026-05-01 14:26 53.52147 -18.55266 38231 ft 481 kts 272°
2026-05-01 14:27 53.52043 -18.66529 38226 ft 481 kts 272°
2026-05-01 14:27 53.51928 -18.77785 38229 ft 482 kts 272°
2026-05-01 14:28 53.51736 -18.94675 38219 ft 482 kts 272°
2026-05-01 14:28 53.51594 -19.05934 38243 ft 482 kts 271°
2026-05-01 14:29 53.51444 -19.17127 38244 ft 482 kts 271°
2026-05-01 14:30 53.51108 -19.39646 38248 ft 482 kts 271°
2026-05-01 14:31 53.50829 -19.56512 38254 ft 481 kts 271°
2026-05-01 14:31 53.50632 -19.67672 38258 ft 481 kts 271°
2026-05-01 14:32 53.50422 -19.78920 38246 ft 481 kts 271°
2026-05-01 14:32 53.50202 -19.90170 38262 ft 482 kts 271°
2026-05-01 14:33 53.49925 -20.01438 38266 ft 483 kts 266°
2026-05-01 14:33 53.49278 -20.12640 38259 ft 483 kts 268°
2026-05-01 14:34 53.48632 -20.23901 38262 ft 483 kts 267°
2026-05-01 14:34 53.47965 -20.35140 38271 ft 483 kts 267°
2026-05-01 14:35 53.47302 -20.46288 38275 ft 482 kts 267°
2026-05-01 14:35 53.46619 -20.57484 38262 ft 481 kts 267°
2026-05-01 14:36 53.45932 -20.68636 38268 ft 480 kts 267°
2026-05-01 14:36 53.45234 -20.79748 38266 ft 477 kts 267°
2026-05-01 14:37 53.44530 -20.90825 38270 ft 478 kts 267°
2026-05-01 14:37 53.43814 -21.01901 38270 ft 478 kts 267°
2026-05-01 14:38 53.43092 -21.12933 38282 ft 477 kts 267°
2026-05-01 14:38 53.42356 -21.23996 38282 ft 476 kts 267°
2026-05-01 14:39 53.41611 -21.35049 38281 ft 476 kts 267°
2026-05-01 14:39 53.40858 -21.46071 38279 ft 476 kts 267°
2026-05-01 14:40 53.40098 -21.57037 38284 ft 476 kts 266°
2026-05-01 14:40 53.39322 -21.68077 38285 ft 477 kts 266°
2026-05-01 14:41 53.38536 -21.79116 38292 ft 477 kts 266°
2026-05-01 14:41 53.37740 -21.90154 38293 ft 477 kts 266°
2026-05-01 14:42 53.36938 -22.01129 38297 ft 477 kts 266°
2026-05-01 14:42 53.36121 -22.12163 38284 ft 477 kts 266°
2026-05-01 14:43 53.35295 -22.23178 38301 ft 476 kts 266°
2026-05-01 14:43 53.34460 -22.34174 38306 ft 476 kts 266°
2026-05-01 14:44 53.33620 -22.45092 38307 ft 476 kts 266°
2026-05-01 14:44 53.32332 -22.61586 38312 ft 476 kts 266°
2026-05-01 14:45 53.31020 -22.78090 38323 ft 478 kts 265°
2026-05-01 14:46 53.30135 -22.89065 38326 ft 479 kts 265°
2026-05-01 14:46 53.28787 -23.05522 38336 ft 475 kts 265°
2026-05-01 14:47 53.27880 -23.16447 38315 ft 474 kts 265°
2026-05-01 14:48 53.26504 -23.32774 38327 ft 475 kts 265°
2026-05-01 14:48 53.25095 -23.49219 38336 ft 477 kts 265°
2026-05-01 14:49 53.23179 -23.71144 38342 ft 475 kts 265°
2026-05-01 14:50 53.21233 -23.92950 38339 ft 475 kts 264°
2026-05-01 14:51 53.19752 -24.09241 38342 ft 475 kts 264°
2026-05-01 14:52 53.18245 -24.25556 38355 ft 474 kts 264°
2026-05-01 14:53 53.16718 -24.41840 38366 ft 477 kts 264°
2026-05-01 14:53 53.15679 -24.52779 38367 ft 478 kts 264°
2026-05-01 14:54 53.14631 -24.63696 38371 ft 476 kts 264°
2026-05-01 14:54 53.13576 -24.74584 38366 ft 475 kts 264°
2026-05-01 14:55 53.12514 -24.85443 38366 ft 475 kts 264°
2026-05-01 14:55 53.11442 -24.96287 38364 ft 475 kts 264°
2026-05-01 14:56 53.10366 -25.07073 38363 ft 475 kts 264°
2026-05-01 14:56 53.09276 -25.17886 38372 ft 473 kts 264°
2026-05-01 14:57 53.08178 -25.28690 38378 ft 472 kts 264°
2026-05-01 14:57 53.06521 -25.44787 38381 ft 472 kts 264°
2026-05-01 14:58 53.05401 -25.55558 38379 ft 472 kts 264°
2026-05-01 14:58 53.04269 -25.66328 38387 ft 472 kts 264°
2026-05-01 14:59 53.03127 -25.77102 38389 ft 472 kts 264°
2026-05-01 14:59 53.01975 -25.87883 38397 ft 475 kts 264°
2026-05-01 15:00 53.00229 -26.04025 38408 ft 475 kts 263°
2026-05-01 15:01 52.99048 -26.14819 38408 ft 475 kts 263°
2026-05-01 15:01 52.97858 -26.25608 38383 ft 475 kts 263°
2026-05-01 15:02 52.96654 -26.36431 38405 ft 477 kts 263°
2026-05-01 15:02 52.95437 -26.47261 38410 ft 477 kts 263°
2026-05-01 15:03 52.94218 -26.58036 38405 ft 477 kts 263°
2026-05-01 15:03 52.92981 -26.68863 38415 ft 477 kts 263°
2026-05-01 15:04 52.91735 -26.79685 38421 ft 477 kts 263°
2026-05-01 15:04 52.90481 -26.90477 38429 ft 477 kts 263°
2026-05-01 15:05 52.89225 -27.01200 38422 ft 477 kts 263°
2026-05-01 15:05 52.87953 -27.11976 38420 ft 476 kts 263°
2026-05-01 15:06 52.86671 -27.22742 38423 ft 476 kts 263°
2026-05-01 15:06 52.85383 -27.33472 38428 ft 478 kts 263°
2026-05-01 15:07 52.84077 -27.44261 38432 ft 479 kts 263°
2026-05-01 15:07 52.82759 -27.55063 38441 ft 479 kts 263°
2026-05-01 15:08 52.81430 -27.65870 38448 ft 479 kts 262°
2026-05-01 15:08 52.80092 -27.76663 38432 ft 479 kts 262°
2026-05-01 15:09 52.78744 -27.87452 38433 ft 479 kts 262°
2026-05-01 15:09 52.77393 -27.98178 38434 ft 479 kts 262°
2026-05-01 15:10 52.76025 -28.08959 38433 ft 479 kts 262°
2026-05-01 15:10 52.73956 -28.25105 38423 ft 479 kts 262°
2026-05-01 15:11 52.71862 -28.41259 38447 ft 481 kts 262°
2026-05-01 15:12 52.70452 -28.52027 38449 ft 479 kts 262°
2026-05-01 15:12 52.68334 -28.68064 38449 ft 478 kts 262°
2026-05-01 15:14 52.64752 -28.94784 38464 ft 479 kts 261°
2026-05-01 15:14 52.62570 -29.10822 38477 ft 481 kts 261°
2026-05-01 15:15 52.59868 -29.30446 38464 ft 478 kts 261°
2026-05-01 15:16 52.56906 -29.51665 38460 ft 475 kts 261°
2026-05-01 15:18 52.53157 -29.78098 38472 ft 476 kts 260°
2026-05-01 15:19 52.50120 -29.99307 38483 ft 477 kts 264°
2026-05-01 15:19 52.49121 -30.15481 38485 ft 474 kts 268°
2026-05-01 15:20 52.48187 -30.31619 38476 ft 474 kts 267°
2026-05-01 15:21 52.47553 -30.42318 38482 ft 473 kts 267°
2026-05-01 15:21 52.46907 -30.53066 38480 ft 473 kts 267°
2026-05-01 15:22 52.45919 -30.69197 38483 ft 473 kts 267°
2026-05-01 15:22 52.45248 -30.79940 38486 ft 473 kts 266°
2026-05-01 15:23 52.44567 -30.90680 38486 ft 471 kts 266°
2026-05-01 15:23 52.43886 -31.01281 38489 ft 471 kts 266°
2026-05-01 15:24 52.43188 -31.11977 38491 ft 472 kts 266°
2026-05-01 15:24 52.42481 -31.22672 38493 ft 472 kts 266°
2026-05-01 15:25 52.41764 -31.33380 38490 ft 473 kts 266°
2026-05-01 15:25 52.41034 -31.44101 38500 ft 473 kts 265°
2026-05-01 15:26 52.40296 -31.54820 38496 ft 473 kts 265°
2026-05-01 15:26 52.39553 -31.65459 38499 ft 473 kts 265°
2026-05-01 15:27 52.38793 -31.76195 38501 ft 473 kts 265°
2026-05-01 15:28 52.37640 -31.92238 38501 ft 473 kts 265°
2026-05-01 15:28 52.36863 -32.02873 38497 ft 473 kts 265°
2026-05-01 15:29 52.35675 -32.18876 38499 ft 470 kts 265°
2026-05-01 15:30 52.34066 -32.40088 38501 ft 470 kts 264°
2026-05-01 15:31 52.31571 -32.72020 38510 ft 473 kts 264°
2026-05-01 15:32 52.29852 -32.93374 38506 ft 473 kts 263°
2026-05-01 15:34 52.27202 -33.25368 38517 ft 474 kts 263°